Погода в Огородтахе

Россия / Республика Саха (Якутия)     62°27′17″N   130°08′58″E
темп.,
°C
ветер,
м/с
пор.,
м/с
влажн.,
%
обл.,
%
осадки,
мм/ч
давл.,
гПа
погр.,
м
28 сентября, вт
вт2800:00+2св31279100 0.0 1012349
03:00+2св41471100 0.0 1010443
06:000св412722 0.0 1009396
09:00+4св411540 0.0 1008511
12:00+8св59380 0.0 1006994
15:00+9св47370 0.0 10061233
18:00+5ссв23550 0.0 100748
21:00+2св23650 0.0 101045
29 сентября, ср
ср2900:000св27680 0.0 1011139
03:00−2с23752 0.0 101245
06:00−2ссв23711 0.0 101268
09:00+2св35455 0.0 1013277
12:00+7св57310 0.0 1011926
15:00+8всв57340 0.0 10101172
18:00+3св37455 0.0 1011136
21:00+1св31153100 0.0 1011270
30 сентября, чт
чт3000:00+2св51347100 0.0 1009459
03:00+2всв41356100 0.1 1008636
06:00+1всв51497100 1.6 1008604
09:00+2всв41297100 2.3 1008546
12:00+3в4897100 0.1 1007642
15:00+3в3797100 0.5 1007614
18:00+3всв3798100 1.2 1007660
21:00+2св3697100 1.6 1006442
1 октября, пт
пт100:00+2ссв2698100 0.6 1005346
03:00+1ссв3797100 2.1 1003298
06:00+1ссв3898100 1.3 1003274
09:00+1с3797100 2.6 1003287
12:00+2с2599100 0.8 1002255
15:00+2ссв2599100 1.3 1002273
18:00+2с2598100 0.5 1002349
21:00+2ссв1398100 1.4 1002410
2 октября, сб
сб200:00+2в1297100 0.3 1003214
03:00+2всв1398100 0.3 1003355
06:00+2в1298100 0.1 1004380
09:00+2юв1296100 0.3 1006274
12:00+4юв228055 0.2 1007598
15:00+4ю117384 0.3 1008655
18:00+2юз129092 0.1 101064
21:00+2зюз139499 0.1 1011142